This is the latest recevied weather packets stored in our database for station/object M0TUM-1. If no packets are shown the sender has not sent any weather packets the latest 10 day(s).
| Time | Temp. | Humidity | Pressure | Rain* | Wind** | Luminosity | Snow |
|---|---|---|---|---|---|---|---|
| 1778007704 | 10.56° C | 77% | 1012.7 hPa | 0 mm | - | 10 W/m² | - |
| 1778007401 | 10.56° C | 77% | 1013 hPa | 0 mm | - | 12 W/m² | - |
| 1778007097 | 10.56° C | 77% | 1012.8 hPa | 0 mm | - | 12 W/m² | - |
| 1778006794 | 10.56° C | 76% | 1012.8 hPa | 0 mm | - | 15 W/m² | - |
| 1778006491 | 11.11° C | 76% | 1012.8 hPa | 0 mm | - | 21 W/m² | - |
| 1778006188 | 11.11° C | 75% | 1012.8 hPa | 0 mm | - | 25 W/m² | - |
| 1778005886 | 11.11° C | 74% | 1013 hPa | 0 mm | - | 32 W/m² | - |
| 1778005582 | 11.11° C | 73% | 1012.9 hPa | 0 mm | - | 32 W/m² | - |
| 1778005279 | 11.67° C | 72% | 1012.7 hPa | 0 mm | - | 42 W/m² | - |
| 1778004975 | 11.67° C | 72% | 1012.6 hPa | 0 mm | - | 46 W/m² | - |
| 1778004673 | 11.67° C | 71% | 1012.7 hPa | 0 mm | - | 55 W/m² | - |
| 1778004368 | 11.67° C | 71% | 1012.7 hPa | 0 mm | - | 55 W/m² | - |
| 1778004066 | 11.67° C | 71% | 1012.7 hPa | 0 mm | - | 59 W/m² | - |
| 1778003762 | 11.67° C | 70% | 1012.8 hPa | 0 mm | - | 69 W/m² | - |
| 1778003458 | 12.22° C | 70% | 1012.8 hPa | 0 mm | - | 66 W/m² | - |
| 1778003155 | 12.22° C | 69% | 1012.6 hPa | 0 mm | - | 76 W/m² | - |
| 1778002851 | 12.78° C | 69% | 1012.7 hPa | 0 mm | - | 87 W/m² | - |
| 1778002548 | 12.78° C | 68% | 1012.8 hPa | 0 mm | - | 125 W/m² | - |
| 1778002245 | 12.22° C | 70% | 1012.7 hPa | 0 mm | - | 158 W/m² | - |
| 1778001943 | 12.78° C | 69% | 1012.9 hPa | 0 mm | - | 150 W/m² | - |
| 1778001639 | 12.78° C | 69% | 1012.7 hPa | 0 mm | - | 173 W/m² | - |
| 1778001334 | 12.22° C | 68% | 1012.5 hPa | 0 mm | - | 185 W/m² | - |
| 1778001031 | 12.22° C | 68% | 1012.6 hPa | 0 mm | - | 154 W/m² | - |
| 1778000728 | 12.78° C | 69% | 1012.7 hPa | 0 mm | - | 131 W/m² | - |
| 1778000424 | 12.78° C | 69% | 1012.7 hPa | 0 mm | - | 132 W/m² | - |
* Rain latest hour (hover to see other rain measurements)
** Current wind speed in m/s (hover to see current wind gust speed)